За Родину

Россия / Краснодарский край     45°21′40″N   37°04′53″E
темп.,
°C
ветер,
м/с
пор.,
м/с
влажн.,
%
обл.,
%
осадки,
мм/ч
давл.,
гПа
погр.,
м
14 мая, пт
пт1400:00+15вюв35895 0.0 100961
03:00+16ююз33795 0.0 100925
06:00+16ююз226073 0.0 101017
09:00+20юз224999 0.0 1010241
12:00+22юз22425 0.0 1011435
15:00+22ююз22425 0.0 1011427
18:00+21з33530 0.0 1011232
21:00+17св22630 0.0 101111
15 мая, сб
сб1500:00+16зюз22672 0.0 101212
03:00+15з2282100 0.1 101321
06:00+15с118619 0.0 101324
09:00+19с226494 0.0 1014295
12:00+22с21545 0.0 1014565
15:00+24с22495 0.0 1014582
18:00+21ссв5559100 0.0 1013189
21:00+17св357583 0.0 101374
16 мая, вс
вс1600:00+17ссв3572100 0.0 101269
03:00+15св4679100 0.0 101197
06:00+16всв488098 0.0 1010146
09:00+20всв69595 0.0 1009270
12:00+23св67608 0.0 1008386
15:00+24ссв6865100 0.0 1006298
18:00+22ссв8117714 0.3 1004204
21:00+20св4685100 0.3 100479
17 мая, пн
пн1700:00+19всв479495 0.8 100399
03:00+19ююв3396100 0.8 100246
06:00+16ююв6109893 0.0 1003177
09:00+16ю91095100 0.1 1005287
12:00+19ю7882100 0.0 1008417
15:00+17ю7883100 0.0 1009287
18:00+16ю678933 0.2 1009283
21:00+15ю610931 1.5 1011312
18 мая, вт
вт1800:00+15ю57942 0.1 1011187
03:00+15ю68947 0.1 1011213
06:00+15ю46944 0.0 1012173
09:00+17ююз78770 0.0 1013385
12:00+18ю897472 0.0 1014540
15:00+19ююз8107311 0.0 1014504
18:00+18ююз710745 0.0 1014398
21:00+16ю711850 0.0 1014295